[[{"header":{"parameterUnit":"m.s-1","parameterCategory":2,"la1":30.2991,"la2":30.254,"lo1":-89.0895,"lo2":-89.0444,"dy":0.0017,"dx":0.0017,"nx":28,"ny":28,"refTime":"2023-11-17T09:00:00:Z","depth":"0","parameterNumber":2,"parameterNumberName":"U-component_of_CURRENTS"},"data":[0,0,0,0,0,0,0,0,0,0,0,0,0,0,0,0,0,0,0,0,0,0,0,0,0,0,0,0,0,0,0,0,0,0,0,0,0,0,0,0,0,0,0,0,0,0,0,0,0,0,0,0,0,0,0,0,0,0,-0.0479,-0.0479,0,-0.0434,-0.0433,-0.0433,-0.0393,-0.0392,-0.0392,-0.0392,-0.0334,-0.0333,-0.0332,0,0,0,0,0,0,0,0,0,0,0,0,0,-0.0522,-0.0521,-0.0479,-0.0479,-0.0478,-0.0434,-0.0433,-0.0432,-0.0393,-0.0392,-0.0392,-0.0391,-0.0335,-0.0333,-0.0332,0,0,0,0,0,0,0,0,0,0,0,0,0,-0.0493,-0.0521,-0.0479,-0.0453,-0.045,-0.0434,-0.0433,-0.0432,-0.0393,-0.0392,-0.0392,-0.0391,-0.0335,-0.0333,-0.0332,-0.0336,0,0,-0.0327,-0.0326,0,0,0,0,0,0,0,0,-0.0495,-0.0491,-0.0457,-0.0455,-0.0451,-0.0418,-0.0427,-0.0399,-0.0393,-0.0415,-0.0392,-0.0391,-0.0362,-0.0358,-0.0351,-0.0333,-0.0331,-0.0327,-0.0326,-0.0325,-0.0325,0,0,0,0,0,0,0,-0.0497,-0.0493,-0.0461,-0.0457,-0.0453,-0.044,-0.0435,-0.0422,-0.0393,-0.0413,-0.041,-0.0405,-0.036,-0.0353,-0.035,-0.033,-0.0327,-0.0325,-0.0324,-0.0324,-0.029,-0.029,0,0,0,0,0,0,-0.0503,-0.0495,-0.0463,-0.046,-0.0471,-0.044,-0.0434,-0.043,-0.0393,-0.0387,-0.0405,-0.0403,-0.0356,-0.0352,-0.0347,-0.0334,-0.0325,-0.0324,-0.0323,-0.029,-0.029,-0.029,0,0,0,0,0,0,-0.0504,-0.0501,-0.0465,-0.0476,-0.0471,-0.044,-0.0435,-0.0429,-0.0419,-0.0387,-0.0381,-0.0401,-0.0355,-0.035,-0.0341,-0.0332,-0.0323,-0.0321,-0.029,-0.029,-0.029,-0.0317,0,0,0,0,0,0,-0.0506,-0.0501,-0.0503,-0.0477,-0.047,-0.0458,-0.0435,-0.0429,-0.0417,-0.0414,-0.0382,-0.0376,-0.0354,-0.0344,-0.0339,-0.033,-0.032,-0.0289,-0.029,-0.029,-0.0316,-0.0318,-0.032,0,0,0,0,0,-0.0507,-0.0515,-0.0503,-0.0499,-0.0472,-0.0458,-0.0454,-0.0429,-0.0418,-0.0418,-0.0399,-0.0377,-0.034,-0.0343,-0.0338,-0.0327,-0.0289,-0.029,-0.029,-0.0316,-0.0318,-0.032,0,0,0,0,0,0,-0.0545,-0.0511,-0.0498,-0.0497,-0.0479,-0.0451,-0.0447,-0.0434,-0.0419,-0.0412,-0.0385,-0.0379,-0.0364,-0.0348,-0.0351,-0.0318,-0.0308,-0.0307,-0.0329,-0.0331,-0.0333,-0.0325,-0.0319,0,0,0,0,0,-0.0552,-0.0539,-0.0514,-0.0512,-0.0502,-0.0476,-0.0467,-0.0451,-0.0433,-0.0425,-0.0403,-0.0379,-0.0362,-0.035,-0.0332,-0.0321,-0.0302,-0.0308,-0.031,-0.0312,-0.0301,-0.0277,-0.0275,-0.029,-0.029,-0.029,0,0,-0.0566,-0.0545,-0.0539,-0.0518,-0.0498,-0.0482,-0.0469,-0.0455,-0.0441,-0.0422,-0.0399,-0.0387,-0.0362,-0.0346,-0.0337,-0.033,-0.03,-0.0312,-0.0313,-0.0302,-0.0277,-0.0275,-0.0274,-0.029,-0.029,-0.029,0,0,-0.0576,-0.0568,-0.0552,-0.0537,-0.0508,-0.0492,-0.049,-0.0462,-0.0449,-0.0434,-0.0415,-0.0402,-0.0373,-0.0353,-0.034,-0.0343,-0.0314,-0.0334,-0.0333,-0.031,-0.0308,-0.0307,-0.0294,-0.0291,-0.0332,-0.0332,-0.0332,0,-0.0594,-0.0569,-0.055,-0.053,-0.0516,-0.0497,-0.0481,-0.0468,-0.0443,-0.0432,-0.0428,-0.0387,-0.0372,-0.0348,-0.0349,-0.0345,-0.0331,-0.0328,-0.0312,-0.031,-0.0308,-0.0295,-0.0291,-0.0334,-0.0333,-0.0333,-0.0333,0,-0.0581,-0.0565,-0.0558,-0.0519,-0.0508,-0.0495,-0.0472,-0.0461,-0.0445,-0.0428,-0.0407,-0.0392,-0.0365,-0.0361,-0.0355,-0.0331,-0.0327,-0.0321,-0.0307,-0.0308,-0.0294,-0.029,-0.0335,-0.0335,-0.0335,-0.0334,0,0,-0.0588,-0.0556,-0.0548,-0.0529,-0.05,-0.0487,-0.047,-0.0446,-0.0431,-0.0413,-0.0391,-0.0372,-0.0365,-0.035,-0.0342,-0.0324,-0.0308,-0.0317,-0.0315,-0.0305,-0.0262,-0.0087,-0.0066,-0.03,-0.0299,-0.0298,-0.0264,0,-0.0574,-0.0547,-0.053,-0.0501,-0.0481,-0.0466,-0.0452,-0.0432,-0.0417,-0.0396,-0.0379,-0.036,-0.036,-0.0352,-0.0334,-0.0313,-0.0295,-0.0318,-0.0261,-0.0259,-0.0103,-0.0053,0.0244,0.0316,-0.026,-0.0259,-0.0258,0,-0.0539,-0.0527,-0.0507,-0.048,-0.0471,-0.0457,-0.0429,-0.0416,-0.0392,-0.0383,-0.0365,-0.0352,-0.0328,-0.0328,-0.0285,-0.03,-0.028,-0.0264,-0.0263,-0.008,-0.0073,0.0227,0.0346,0.0449,-0.0251,-0.0252,-0.0252,0,-0.0521,-0.0498,-0.0485,-0.0476,-0.0454,-0.0442,-0.043,-0.0408,-0.04,-0.0376,-0.0362,-0.0337,-0.0311,-0.0289,-0.0247,-0.027,-0.0188,-0.0219,-0.0046,-0.0036,0.0244,0.028,0.0479,-0.018,-0.018,-0.018,-0.018,0,-0.0492,-0.0472,-0.0478,-0.0465,-0.0448,-0.0434,-0.0419,-0.0402,-0.0389,-0.0349,-0.0356,-0.0297,-0.0296,-0.0245,-0.0232,-0.0095,-0.0173,-0.0017,0.0005,0.0242,0.0276,0.0399,0.0329,-0.0179,-0.0179,-0.0179,-0.018,0,-0.0451,-0.046,-0.0439,-0.0434,-0.0434,-0.0418,-0.0416,-0.0407,-0.0393,-0.034,-0.0329,-0.0271,-0.0146,-0.0132,-0.007,-0.0037,0.0124,0.0099,0.0378,0.0437,0.0722,0.0637,0.0681,0.0689,0.0305,0.031,0.0314,0,-0.0421,-0.041,-0.042,-0.0423,-0.0419,-0.0413,-0.0409,-0.0405,-0.0385,-0.0284,-0.024,-0.0116,0.0075,0.0226,0.0346,0.0452,0.0351,0.0692,0.0719,0.0823,0.074,0.0563,0.0549,0.1051,0.1061,0.1069,0.1075,0,-0.0357,-0.0372,-0.0372,-0.0388,-0.0389,-0.0373,-0.0355,-0.0325,-0.0275,-0.0179,0.0036,0.0211,0.0451,0.0799,0.0912,0.0958,0.0801,0.0862,0.0916,0.132,0.1193,0.1187,0.0897,0.1147,0.114,0.1134,0.1131,0.1128,-0.0302,-0.0308,-0.0326,-0.0327,-0.0335,-0.0268,-0.0175,-0.0121,0.0022,0.0285,0.0339,0.0717,0.1126,0.1434,0.143,0.1675,0.1347,0.1742,0.1616,0.1414,0.1489,0.1359,0.1668,0.1664,0.1661,0.1658,0.1655,0,-0.0203,-0.0235,-0.0259,-0.0224,-0.0169,-0.0193,-0.0088,0.0067,0.0345,0.0597,0.0882,0.1461,0.1911,0.2105,0.2442,0.2458,0.2277,0.2393,0.2246,0.2178,0.2107,0.2222,0.2737,0.2737,0.2737,0.2736,0.2736,0.2736,-0.0156,-0.0144,-0.0171,-0.0049,-0.0009,0.0172,0.0295,0.0512,0.0739,0.1232,0.1598,0.182,0.2199,0.2762,0.3014,0.2951,0.2723,0.2733,0.2458,0.2509,0.2439,0.2371,0.2474,0.3032,0.3032,0.2658,0.2656,0.2654]},{"header":{"parameterUnit":"m.s-1","parameterCategory":2,"la1":30.2991,"la2":30.254,"lo1":-89.0895,"lo2":-89.0444,"dy":0.0017,"dx":0.0017,"nx":28,"ny":28,"refTime":"2023-11-17T09:00:00:Z","depth":"0","parameterNumber":3,"parameterNumberName":"V-component_of_CURRENTS"},"data":[0,0,0,0,0,0,0,0,0,0,0,0,0,0,0,0,0,0,0,0,0,0,0,0,0,0,0,0,0,0,0,0,0,0,0,0,0,0,0,0,0,0,0,0,0,0,0,0,0,0,0,0,0,0,0,0,0,0,-0.1046,-0.1046,0,-0.1024,-0.1023,-0.1023,-0.0994,-0.0994,-0.0993,-0.0993,-0.0969,-0.0969,-0.0969,0,0,0,0,0,0,0,0,0,0,0,0,0,-0.1105,-0.1104,-0.1046,-0.1046,-0.1045,-0.1024,-0.1023,-0.1023,-0.0994,-0.0994,-0.0993,-0.0992,-0.0969,-0.0969,-0.0969,0,0,0,0,0,0,0,0,0,0,0,0,0,-0.1082,-0.1103,-0.1046,-0.1027,-0.1025,-0.1024,-0.1023,-0.1023,-0.0995,-0.0994,-0.0993,-0.0992,-0.0969,-0.0969,-0.0969,-0.0986,0,0,-0.0968,-0.0968,0,0,0,0,0,0,0,0,-0.1083,-0.108,-0.103,-0.1028,-0.1026,-0.101,-0.1035,-0.101,-0.0995,-0.1008,-0.0993,-0.0991,-0.0982,-0.0981,-0.0981,-0.0985,-0.0984,-0.0968,-0.0968,-0.0968,-0.0968,0,0,0,0,0,0,0,-0.1085,-0.1081,-0.1039,-0.103,-0.1027,-0.1034,-0.1029,-0.1031,-0.1001,-0.1007,-0.1004,-0.1,-0.0981,-0.0981,-0.098,-0.0984,-0.0968,-0.0968,-0.0968,-0.0968,-0.098,-0.098,0,0,0,0,0,0,-0.1083,-0.1082,-0.1039,-0.1038,-0.1051,-0.1033,-0.1028,-0.1017,-0.1001,-0.0998,-0.1,-0.0998,-0.0982,-0.098,-0.0979,-0.1008,-0.0968,-0.0968,-0.0968,-0.0979,-0.098,-0.098,0,0,0,0,0,0,-0.1084,-0.1079,-0.104,-0.1059,-0.1054,-0.1033,-0.1021,-0.1017,-0.1012,-0.0996,-0.0993,-0.0998,-0.0981,-0.0979,-0.0972,-0.1007,-0.0968,-0.0968,-0.0979,-0.098,-0.098,-0.1061,0,0,0,0,0,0,-0.1086,-0.108,-0.1077,-0.1058,-0.1053,-0.104,-0.1021,-0.1017,-0.101,-0.1007,-0.0993,-0.099,-0.098,-0.0973,-0.0972,-0.1006,-0.0968,-0.0978,-0.0979,-0.098,-0.1057,-0.1064,-0.1069,0,0,0,0,0,-0.1088,-0.109,-0.1077,-0.1072,-0.1047,-0.104,-0.1039,-0.1022,-0.1011,-0.1013,-0.0997,-0.099,-0.0977,-0.0973,-0.0972,-0.1007,-0.0978,-0.0979,-0.098,-0.1055,-0.1063,-0.1069,0,0,0,0,0,0,-0.112,-0.1087,-0.1072,-0.1064,-0.1052,-0.1035,-0.1038,-0.1025,-0.1015,-0.1011,-0.0994,-0.099,-0.0999,-0.0984,-0.098,-0.1008,-0.0978,-0.0978,-0.1035,-0.1042,-0.1048,-0.1081,-0.0968,0,0,0,0,0,-0.1124,-0.1111,-0.1086,-0.1081,-0.1077,-0.1058,-0.1054,-0.104,-0.1027,-0.1022,-0.1012,-0.1002,-0.1004,-0.1006,-0.0999,-0.1017,-0.1017,-0.1036,-0.1042,-0.1047,-0.1072,-0.1097,-0.1109,-0.0983,-0.0983,-0.0983,0,0,-0.113,-0.1115,-0.1105,-0.1086,-0.1077,-0.1087,-0.1054,-0.1049,-0.1065,-0.1022,-0.104,-0.1022,-0.101,-0.1028,-0.1032,-0.102,-0.1079,-0.1048,-0.1054,-0.1075,-0.1099,-0.1112,-0.1123,-0.0984,-0.0983,-0.0983,0,0,-0.1154,-0.1129,-0.1132,-0.1128,-0.1114,-0.1106,-0.1105,-0.1089,-0.1088,-0.1094,-0.1073,-0.1074,-0.1069,-0.1078,-0.108,-0.1114,-0.1106,-0.1105,-0.1172,-0.1197,-0.1208,-0.1218,-0.1222,-0.1232,-0.1113,-0.1114,-0.1114,0,-0.1166,-0.1168,-0.1135,-0.1149,-0.1155,-0.1119,-0.114,-0.114,-0.1124,-0.1134,-0.1107,-0.1116,-0.1103,-0.1143,-0.1156,-0.1134,-0.1135,-0.115,-0.1208,-0.1218,-0.1227,-0.1229,-0.1239,-0.1118,-0.1117,-0.1117,-0.1116,0,-0.1198,-0.1204,-0.1211,-0.1215,-0.1217,-0.1226,-0.1219,-0.1225,-0.1214,-0.1213,-0.1233,-0.1213,-0.1223,-0.1217,-0.1203,-0.1262,-0.1236,-0.1211,-0.1198,-0.1245,-0.1242,-0.1252,-0.1123,-0.1122,-0.1121,-0.112,0,0,-0.1217,-0.1229,-0.1236,-0.1248,-0.1253,-0.1255,-0.1289,-0.1308,-0.1327,-0.1321,-0.1351,-0.1365,-0.1348,-0.135,-0.1328,-0.1352,-0.141,-0.1319,-0.1318,-0.1338,-0.1455,-0.1345,-0.1343,-0.1397,-0.1399,-0.1401,-0.1423,0,-0.1256,-0.1298,-0.1295,-0.1337,-0.1356,-0.1346,-0.1376,-0.1388,-0.1389,-0.1406,-0.1406,-0.1415,-0.1401,-0.1397,-0.1431,-0.1396,-0.1439,-0.1406,-0.1393,-0.1393,-0.1303,-0.1352,-0.1209,-0.1209,-0.1432,-0.1433,-0.1434,0,-0.1293,-0.1317,-0.1368,-0.1393,-0.14,-0.1424,-0.1457,-0.1476,-0.1497,-0.1497,-0.1523,-0.1502,-0.1536,-0.1505,-0.1537,-0.1513,-0.1516,-0.1495,-0.1495,-0.1377,-0.1301,-0.1198,-0.1216,-0.128,-0.1448,-0.1447,-0.1446,0,-0.1318,-0.1365,-0.1408,-0.142,-0.1446,-0.1474,-0.1488,-0.1511,-0.1497,-0.1553,-0.1522,-0.1588,-0.1548,-0.1605,-0.1553,-0.1561,-0.1557,-0.1557,-0.1474,-0.1465,-0.1334,-0.1309,-0.1426,-0.1624,-0.1624,-0.1624,-0.1624,0,-0.1354,-0.138,-0.1427,-0.1445,-0.1487,-0.1502,-0.1523,-0.1553,-0.1545,-0.1478,-0.1563,-0.1484,-0.1566,-0.1543,-0.1577,-0.1524,-0.1583,-0.1505,-0.1474,-0.1352,-0.1329,-0.1368,-0.1452,-0.1625,-0.1624,-0.1624,-0.1624,0,-0.1358,-0.1388,-0.1434,-0.1487,-0.1493,-0.1527,-0.15,-0.1476,-0.1504,-0.1414,-0.1413,-0.1396,-0.1349,-0.1416,-0.1445,-0.1481,-0.1511,-0.147,-0.1307,-0.1257,-0.125,-0.1343,-0.1447,-0.1525,-0.1418,-0.1415,-0.1413,0,-0.1347,-0.1377,-0.1453,-0.1453,-0.1473,-0.1492,-0.1451,-0.1461,-0.1389,-0.129,-0.1202,-0.1164,-0.103,-0.1071,-0.116,-0.1239,-0.1368,-0.1198,-0.1206,-0.125,-0.1332,-0.1406,-0.1473,-0.1063,-0.1059,-0.1055,-0.1052,0,-0.1322,-0.1369,-0.1415,-0.1416,-0.1397,-0.1342,-0.1282,-0.121,-0.1134,-0.1024,-0.0807,-0.0704,-0.0715,-0.0668,-0.0825,-0.0904,-0.1237,-0.1118,-0.1217,-0.1123,-0.116,-0.1215,-0.1048,-0.1017,-0.1021,-0.1023,-0.1025,-0.1026,-0.1278,-0.1325,-0.1363,-0.1354,-0.1309,-0.115,-0.102,-0.0888,-0.07,-0.0415,-0.0417,-0.0126,-0.0195,-0.0347,-0.0567,-0.0821,-0.0958,-0.0869,-0.0994,-0.1076,-0.1116,-0.0863,-0.0758,-0.0759,-0.0761,-0.0762,-0.0764,0,-0.1183,-0.1232,-0.125,-0.1193,-0.1056,-0.1059,-0.084,-0.0616,-0.0292,-0.004,0.0195,0.0489,0.0342,0.0065,-0.0307,-0.0609,-0.082,-0.0792,-0.0892,-0.0987,-0.0774,-0.0718,-0.0531,-0.0531,-0.0531,-0.0531,-0.0531,-0.0531,-0.113,-0.1126,-0.116,-0.0939,-0.0857,-0.0551,-0.0377,-0.0068,0.0192,0.0701,0.1023,0.117,0.1124,0.0263,-0.0361,-0.0579,-0.0903,-0.0906,-0.1157,-0.1002,-0.1019,-0.1036,-0.1002,-0.0879,-0.0879,-0.1276,-0.128,-0.1282]}],[{"header":{"parameterUnit":"m.s-1","parameterCategory":2,"la1":30.2991,"la2":30.254,"lo1":-89.0895,"lo2":-89.0444,"dy":0.0017,"dx":0.0017,"nx":28,"ny":28,"refTime":"2023-11-17T09:00:00:Z","depth":"2","parameterNumber":2,"parameterNumberName":"U-component_of_CURRENTS"},"data":[0,0,0,0,0,0,0,0,0,0,0,0,0,0,0,0,0,0,0,0,0,0,0,0,0,0,0,0,0,0,0,0,0,0,0,0,0,0,0,0,0,0,0,0,0,0,0,0,0,0,0,0,0,0,0,0,0,0,0.0036,0.0037,0,0.0045,0.0045,0.0046,0.0057,0.0057,0.0058,0.0058,0.0051,0.0051,0.0051,0,0,0,0,0,0,0,0,0,0,0,0,0,0.0039,0.0038,0.0036,0.0037,0.0037,0.0045,0.0046,0.0046,0.0057,0.0057,0.0058,0.0058,0.0052,0.0051,0.0051,0,0,0,0,0,0,0,0,0,0,0,0,0,0.0041,0.0038,0.0036,0.0044,0.0045,0.0045,0.0046,0.0046,0.0057,0.0057,0.0058,0.0058,0.0052,0.0051,0.005,0.0038,0,0,0.0048,0.0048,0,0,0,0,0,0,0,0,0.004,0.004,0.0043,0.0044,0.0045,0.0051,0.0044,0.0043,0.0057,0.0051,0.0058,0.0058,0.005,0.005,0.0049,0.0038,0.0037,0.0048,0.0048,0.0048,0.0048,0,0,0,0,0,0,0,0.004,0.004,0.0039,0.0043,0.0044,0.0051,0.0051,0.0044,0.0047,0.0052,0.0053,0.0056,0.0051,0.005,0.0049,0.0037,0.0048,0.0048,0.0047,0.0047,0.0042,0.0042,0,0,0,0,0,0,0.004,0.004,0.0039,0.0039,0.0045,0.0051,0.0051,0.0048,0.0048,0.0049,0.0055,0.0056,0.0051,0.005,0.0049,0.0045,0.0048,0.0047,0.0047,0.0042,0.0042,0.0042,0,0,0,0,0,0,0.004,0.004,0.0038,0.0041,0.0042,0.005,0.0047,0.0048,0.005,0.0051,0.0051,0.0057,0.0051,0.005,0.005,0.0045,0.0047,0.0046,0.0041,0.0042,0.0042,0.0031,0,0,0,0,0,0,0.004,0.0039,0.0039,0.0041,0.0041,0.0039,0.0046,0.0048,0.0052,0.0053,0.0052,0.0052,0.0051,0.0051,0.0049,0.0044,0.0046,0.0041,0.0041,0.0042,0.0031,0.0031,0.0031,0,0,0,0,0,0.004,0.0039,0.0039,0.0039,0.0039,0.0039,0.0039,0.0047,0.0051,0.005,0.0055,0.0052,0.0053,0.005,0.0048,0.0043,0.0041,0.0041,0.0042,0.0031,0.0031,0.0031,0,0,0,0,0,0,0.0037,0.004,0.004,0.0039,0.0038,0.0041,0.0044,0.0046,0.0048,0.0052,0.0051,0.0051,0.0051,0.005,0.0048,0.0045,0.0047,0.0047,0.004,0.0039,0.0039,0.0049,0.0045,0,0,0,0,0,0.0036,0.0037,0.0037,0.0036,0.0036,0.0039,0.004,0.0044,0.0046,0.0048,0.0048,0.005,0.005,0.0048,0.0049,0.0042,0.0064,0.004,0.004,0.0039,0.0047,0.0063,0.0065,0.0044,0.0044,0.0044,0,0,0.0032,0.0037,0.0035,0.0036,0.0037,0.0035,0.004,0.0043,0.0043,0.0046,0.0047,0.0049,0.005,0.0047,0.0047,0.0046,0.0063,0.004,0.004,0.0048,0.0063,0.0065,0.0067,0.0044,0.0044,0.0044,0,0,0.0028,0.003,0.0029,0.003,0.0035,0.0036,0.0036,0.0038,0.0041,0.004,0.0046,0.0048,0.0044,0.0046,0.0045,0.0045,0.0063,0.0043,0.0046,0.006,0.0062,0.0064,0.0119,0.0126,0.0041,0.0041,0.0041,0,0.0024,0.0025,0.0028,0.003,0.0033,0.0035,0.0035,0.0034,0.0036,0.0042,0.0041,0.0048,0.0044,0.0047,0.0048,0.0043,0.0071,0.0043,0.006,0.0062,0.0064,0.012,0.0128,0.004,0.004,0.004,0.0041,0,0.002,0.0022,0.0022,0.0025,0.0026,0.0028,0.0029,0.0031,0.0035,0.0038,0.0045,0.0043,0.0052,0.0045,0.0044,0.0054,0.0078,0.0058,0.0059,0.0065,0.0125,0.0133,0.004,0.004,0.004,0.004,0,0,0.0016,0.0018,0.0021,0.0023,0.0027,0.0029,0.003,0.0035,0.0044,0.0042,0.0057,0.0049,0.0056,0.0058,0.0055,0.0062,0.0102,0.0067,0.0068,0.0121,0.017,0.0355,0.0382,0.0082,0.0082,0.0083,0.0215,0,0.0014,0.0017,0.0021,0.0023,0.0023,0.003,0.0033,0.0039,0.0046,0.006,0.0061,0.0072,0.0057,0.0065,0.0069,0.0096,0.0119,0.007,0.0157,0.0161,0.0323,0.0396,0.0251,0.0371,0.0223,0.0224,0.0225,0,0.0017,0.0019,0.002,0.0029,0.0031,0.0033,0.005,0.0053,0.0069,0.0077,0.0087,0.0095,0.0116,0.0095,0.0151,0.0122,0.015,0.0167,0.0171,0.0355,0.0362,0.0336,0.0391,0.0239,0.0238,0.0237,0.0236,0,0.0021,0.0024,0.0028,0.0029,0.0033,0.0041,0.0047,0.0061,0.0074,0.0093,0.0121,0.0131,0.0175,0.0178,0.0247,0.0189,0.0334,0.0252,0.0448,0.0462,0.0365,0.0372,0.0292,0.0292,0.0292,0.0291,0.0291,0,0.0025,0.0028,0.0031,0.0031,0.0045,0.0046,0.0065,0.0073,0.0095,0.0145,0.0134,0.0209,0.0199,0.0287,0.0287,0.0453,0.0375,0.049,0.0519,0.0366,0.037,0.0261,0.0256,0.0296,0.0295,0.0294,0.0294,0,0.003,0.0029,0.0034,0.004,0.0047,0.0057,0.008,0.0101,0.012,0.0191,0.0206,0.0291,0.0444,0.0478,0.0547,0.0569,0.065,0.0719,0.0585,0.06,0.0744,0.0736,0.0921,0.0929,0.0936,0.0942,0.0946,0,0.0027,0.003,0.0045,0.0061,0.0065,0.008,0.0104,0.0112,0.0144,0.0275,0.0326,0.05,0.066,0.0871,0.0923,0.1016,0.0918,0.0937,0.0804,0.0806,0.0813,0.0795,0.0778,0.0653,0.0654,0.0656,0.0657,0,0.0027,0.0037,0.0047,0.0086,0.0109,0.0135,0.017,0.0197,0.0252,0.0338,0.0529,0.0674,0.0929,0.1028,0.1187,0.1177,0.0906,0.0985,0.0993,0.0564,0.0576,0.0577,0.0563,0.0671,0.067,0.0669,0.0668,0.0667,0.0032,0.0052,0.0084,0.0124,0.0158,0.0214,0.0251,0.031,0.0401,0.0561,0.0683,0.0882,0.095,0.1195,0.1206,0.1173,0.1216,0.1048,0.103,0.1013,0.1008,0.1036,0.1217,0.1218,0.122,0.1221,0.1222,0,0.0051,0.009,0.0127,0.0185,0.0243,0.0254,0.0323,0.0373,0.0516,0.0669,0.0851,0.0895,0.1026,0.108,0.1083,0.1131,0.0959,0.104,0.0748,0.0739,0.0729,0.0695,0.0828,0.0827,0.0826,0.0825,0,0,0.0066,0.0118,0.0152,0.0262,0.0312,0.0398,0.0449,0.0532,0.0625,0.077,0.0867,0.1046,0.1088,0.0975,0.0952,0.0898,0.0794,0.0849,0.116,0.0808,0.0797,0.0736,0.0679,0,0,0,0,0]},{"header":{"parameterUnit":"m.s-1","parameterCategory":2,"la1":30.2991,"la2":30.254,"lo1":-89.0895,"lo2":-89.0444,"dy":0.0017,"dx":0.0017,"nx":28,"ny":28,"refTime":"2023-11-17T09:00:00:Z","depth":"2","parameterNumber":3,"parameterNumberName":"V-component_of_CURRENTS"},"data":[0,0,0,0,0,0,0,0,0,0,0,0,0,0,0,0,0,0,0,0,0,0,0,0,0,0,0,0,0,0,0,0,0,0,0,0,0,0,0,0,0,0,0,0,0,0,0,0,0,0,0,0,0,0,0,0,0,0,-0.0238,-0.0238,0,-0.0243,-0.0243,-0.0243,-0.0248,-0.0248,-0.0248,-0.0248,-0.0254,-0.0254,-0.0254,0,0,0,0,0,0,0,0,0,0,0,0,0,-0.0238,-0.0238,-0.0238,-0.0238,-0.0238,-0.0243,-0.0243,-0.0243,-0.0248,-0.0248,-0.0248,-0.0248,-0.0254,-0.0254,-0.0254,0,0,0,0,0,0,0,0,0,0,0,0,0,-0.024,-0.0238,-0.0238,-0.0241,-0.0241,-0.0243,-0.0243,-0.0243,-0.0248,-0.0248,-0.0248,-0.0248,-0.0254,-0.0254,-0.0254,-0.0255,0,0,-0.0255,-0.0255,0,0,0,0,0,0,0,0,-0.024,-0.024,-0.024,-0.0241,-0.0241,-0.0244,-0.0245,-0.0247,-0.0248,-0.0246,-0.0248,-0.0248,-0.025,-0.0251,-0.0252,-0.0255,-0.0255,-0.0255,-0.0255,-0.0255,-0.0255,0,0,0,0,0,0,0,-0.024,-0.024,-0.0241,-0.024,-0.0241,-0.0243,-0.0243,-0.0245,-0.0249,-0.0246,-0.0247,-0.0246,-0.025,-0.0252,-0.0253,-0.0255,-0.0255,-0.0255,-0.0255,-0.0255,-0.0261,-0.0261,0,0,0,0,0,0,-0.0238,-0.024,-0.0241,-0.0241,-0.024,-0.0243,-0.0243,-0.0244,-0.0249,-0.0249,-0.0246,-0.0246,-0.0252,-0.0252,-0.0253,-0.0261,-0.0255,-0.0255,-0.0255,-0.0261,-0.0261,-0.0261,0,0,0,0,0,0,-0.0238,-0.0238,-0.024,-0.024,-0.024,-0.0243,-0.0243,-0.0244,-0.0247,-0.0248,-0.0249,-0.0249,-0.0252,-0.0253,-0.0255,-0.0261,-0.0255,-0.0255,-0.0261,-0.0261,-0.0261,-0.0273,0,0,0,0,0,0,-0.0238,-0.0238,-0.024,-0.024,-0.024,-0.0241,-0.0243,-0.0244,-0.0246,-0.0247,-0.0251,-0.0251,-0.0252,-0.0255,-0.0256,-0.0261,-0.0255,-0.0261,-0.0261,-0.0261,-0.0272,-0.0273,-0.0274,0,0,0,0,0,-0.0238,-0.0237,-0.024,-0.024,-0.0242,-0.024,-0.0241,-0.0243,-0.0246,-0.0247,-0.0251,-0.0251,-0.0256,-0.0255,-0.0256,-0.0262,-0.0261,-0.0261,-0.0261,-0.0272,-0.0273,-0.0274,0,0,0,0,0,0,-0.0236,-0.0237,-0.024,-0.024,-0.0241,-0.0241,-0.0242,-0.0244,-0.0248,-0.0249,-0.0252,-0.0253,-0.0258,-0.0256,-0.0255,-0.0263,-0.0258,-0.0258,-0.0266,-0.0267,-0.0268,-0.0281,-0.0256,0,0,0,0,0,-0.0237,-0.0238,-0.0239,-0.0239,-0.0239,-0.0242,-0.0243,-0.0244,-0.0245,-0.0247,-0.0251,-0.0254,-0.0258,-0.026,-0.0262,-0.0265,-0.0262,-0.0269,-0.027,-0.027,-0.0281,-0.0282,-0.0284,-0.0261,-0.0261,-0.0261,0,0,-0.0238,-0.0237,-0.0239,-0.0239,-0.024,-0.0242,-0.0243,-0.0242,-0.0248,-0.0247,-0.0257,-0.0258,-0.026,-0.0265,-0.0267,-0.0265,-0.027,-0.0271,-0.0271,-0.0281,-0.0283,-0.0285,-0.0287,-0.0261,-0.0261,-0.0261,0,0,-0.0234,-0.0238,-0.0237,-0.0239,-0.0239,-0.0242,-0.0242,-0.0244,-0.025,-0.0256,-0.0259,-0.0266,-0.0268,-0.0275,-0.0278,-0.0285,-0.0275,-0.0279,-0.0295,-0.0296,-0.0298,-0.03,-0.028,-0.028,-0.0279,-0.0279,-0.0279,0,-0.0234,-0.0233,-0.0236,-0.0236,-0.0238,-0.0242,-0.0242,-0.025,-0.0254,-0.0259,-0.026,-0.0273,-0.0277,-0.0288,-0.0294,-0.0289,-0.0278,-0.0291,-0.0298,-0.03,-0.0302,-0.028,-0.028,-0.028,-0.028,-0.028,-0.028,0,-0.0228,-0.0231,-0.023,-0.0234,-0.0237,-0.0237,-0.0246,-0.0253,-0.0261,-0.0268,-0.028,-0.0288,-0.0298,-0.0298,-0.0302,-0.0315,-0.0298,-0.0299,-0.0297,-0.0305,-0.0281,-0.0281,-0.0281,-0.0281,-0.0281,-0.028,0,0,-0.0215,-0.0224,-0.0224,-0.0227,-0.0236,-0.0235,-0.0249,-0.0259,-0.0266,-0.028,-0.0286,-0.031,-0.0317,-0.0322,-0.0325,-0.0331,-0.0333,-0.0323,-0.0323,-0.0306,-0.0317,-0.0301,-0.0298,-0.0332,-0.0332,-0.0333,-0.0289,0,-0.0208,-0.0206,-0.0215,-0.0219,-0.0221,-0.0234,-0.0244,-0.0256,-0.0269,-0.0276,-0.0295,-0.0302,-0.0325,-0.0325,-0.0341,-0.033,-0.0336,-0.0344,-0.031,-0.0309,-0.0297,-0.03,-0.0337,-0.0301,-0.0288,-0.0288,-0.0288,0,-0.0196,-0.0198,-0.0202,-0.0211,-0.0212,-0.0221,-0.0235,-0.0245,-0.0264,-0.0272,-0.0294,-0.03,-0.0319,-0.0331,-0.034,-0.0341,-0.034,-0.0333,-0.0331,-0.0317,-0.0294,-0.0295,-0.0301,-0.0288,-0.0288,-0.0288,-0.0288,0,-0.018,-0.0187,-0.019,-0.0194,-0.0208,-0.0217,-0.0227,-0.0247,-0.0242,-0.0271,-0.0249,-0.0295,-0.0274,-0.031,-0.0306,-0.0323,-0.0293,-0.0312,-0.0296,-0.0293,-0.0321,-0.032,-0.0325,-0.0325,-0.0325,-0.0326,-0.0326,0,-0.0166,-0.0169,-0.0186,-0.0189,-0.0192,-0.0209,-0.0216,-0.023,-0.023,-0.0196,-0.0246,-0.02,-0.0265,-0.0249,-0.0289,-0.0279,-0.0281,-0.0302,-0.0288,-0.0322,-0.0322,-0.0314,-0.0313,-0.0324,-0.0324,-0.0325,-0.0325,0,-0.015,-0.0161,-0.0167,-0.0183,-0.0187,-0.0194,-0.0195,-0.0193,-0.019,-0.014,-0.0136,-0.0115,-0.0093,-0.0146,-0.0165,-0.0218,-0.0239,-0.0234,-0.0259,-0.0251,-0.0245,-0.0245,-0.0232,-0.0231,-0.0231,-0.023,-0.023,0,-0.0143,-0.0146,-0.016,-0.0162,-0.0173,-0.0183,-0.0182,-0.0185,-0.0156,-0.0061,-0.0012,0.0029,0.0078,0.0044,-0.0067,-0.0145,-0.0158,-0.0221,-0.0282,-0.0251,-0.0239,-0.024,-0.0241,-0.0312,-0.0312,-0.0312,-0.0312,0,-0.0134,-0.0142,-0.0147,-0.0145,-0.015,-0.0142,-0.0124,-0.0083,-0.0041,0.004,0.0182,0.0233,0.0202,0.011,-0.0017,-0.0083,-0.0229,-0.0226,-0.0186,-0.0329,-0.0323,-0.0312,-0.0311,-0.0314,-0.0314,-0.0314,-0.0314,-0.0314,-0.0132,-0.0129,-0.0131,-0.0128,-0.0118,-0.0078,-0.0034,0.0032,0.0129,0.0292,0.0318,0.0405,0.0256,0.0099,-0.0034,-0.0191,-0.018,-0.0267,-0.0268,-0.0268,-0.0285,-0.0279,-0.0263,-0.0262,-0.0262,-0.0262,-0.0261,0,-0.0126,-0.0117,-0.0111,-0.0089,-0.005,-0.0053,0.0032,0.0114,0.0284,0.0386,0.0511,0.039,0.0263,0.0111,-0.0134,-0.0274,-0.0311,-0.0313,-0.0354,-0.0352,-0.035,-0.0373,-0.0372,-0.0373,-0.0373,-0.0373,0,0,-0.0123,-0.011,-0.0099,-0.003,0.0006,0.0097,0.0168,0.0307,0.0403,0.0539,0.0578,0.056,0.0324,0.0125,-0.009,-0.0226,-0.0248,-0.025,-0.0154,-0.0177,-0.0172,-0.0323,-0.0355,0,0,0,0,0]}],[{"header":{"parameterUnit":"m.s-1","parameterCategory":2,"la1":30.2991,"la2":30.254,"lo1":-89.0895,"lo2":-89.0444,"dy":0.0017,"dx":0.0017,"nx":28,"ny":28,"refTime":"2023-11-17T09:00:00:Z","depth":"4","parameterNumber":2,"parameterNumberName":"U-component_of_CURRENTS"},"data":[0,0,0,0,0,0,0,0,0,0,0,0,0,0,0,0,0,0,0,0,0,0,0,0,0,0,0,0,0,0,0,0,0,0,0,0,0,0,0,0,0,0,0,0,0,0,0,0,0,0,0,0,0,0,0,0,0,0,0.0059,0.0059,0,0.0046,0.0046,0.0045,0.0043,0.0043,0.0043,0.0043,0.0039,0.0039,0.0039,0,0,0,0,0,0,0,0,0,0,0,0,0,0.0076,0.0075,0.0059,0.0059,0.0059,0.0046,0.0046,0.0045,0.0043,0.0043,0.0043,0.0043,0.0039,0.0039,0.0039,0,0,0,0,0,0,0,0,0,0,0,0,0,0.0065,0.0075,0.0059,0.0057,0.0057,0.0046,0.0046,0.0045,0.0043,0.0043,0.0043,0.0044,0.0039,0.0039,0.0039,0.0029,0,0,0.0037,0.0037,0,0,0,0,0,0,0,0,0.0066,0.0064,0.0058,0.0057,0.0057,0.0047,0.005,0.0041,0.0043,0.0047,0.0043,0.0044,0.0043,0.0043,0.0037,0.0029,0.0029,0.0037,0.0037,0.0037,0.0036,0,0,0,0,0,0,0,0.0066,0.0065,0.0053,0.0058,0.0057,0.0055,0.0053,0.0048,0.0043,0.0046,0.0047,0.0047,0.0043,0.0038,0.0037,0.0029,0.0037,0.0037,0.0036,0.0036,0.0028,0.0028,0,0,0,0,0,0,0.007,0.0065,0.0053,0.0053,0.0064,0.0054,0.0053,0.0049,0.0043,0.0042,0.0047,0.0047,0.0039,0.0038,0.0037,0.0044,0.0037,0.0036,0.0036,0.0028,0.0028,0.0028,0,0,0,0,0,0,0.0071,0.0069,0.0054,0.006,0.0058,0.0054,0.005,0.0049,0.0046,0.0043,0.0042,0.0046,0.0039,0.0038,0.0037,0.0043,0.0036,0.0035,0.0028,0.0028,0.0028,0.0045,0,0,0,0,0,0,0.0071,0.0069,0.0069,0.006,0.0058,0.0049,0.0049,0.0048,0.0047,0.0047,0.0042,0.0042,0.0039,0.0038,0.0037,0.0042,0.0035,0.0028,0.0028,0.0028,0.0045,0.0046,0.0047,0,0,0,0,0,0.0072,0.0069,0.0068,0.0067,0.0057,0.0049,0.0047,0.0045,0.0046,0.0044,0.0044,0.0042,0.0038,0.0038,0.0036,0.0042,0.0028,0.0028,0.0028,0.0044,0.0046,0.0047,0,0,0,0,0,0,0.0076,0.0068,0.0068,0.0063,0.0058,0.0049,0.0048,0.0045,0.0042,0.0045,0.0041,0.0041,0.0042,0.0038,0.0038,0.0039,0.0033,0.0033,0.0046,0.0047,0.0048,0.0065,0.0035,0,0,0,0,0,0.0076,0.0072,0.0066,0.0062,0.006,0.0054,0.0052,0.005,0.0046,0.0045,0.0043,0.0042,0.004,0.0041,0.0037,0.0038,0.0056,0.004,0.0041,0.0042,0.0055,0.0082,0.0088,0.0029,0.0029,0.0029,0,0,0.0077,0.0073,0.0071,0.0063,0.0059,0.0057,0.0053,0.005,0.0052,0.0045,0.0048,0.0044,0.004,0.0042,0.0042,0.0041,0.007,0.0043,0.0044,0.0056,0.0083,0.0089,0.0094,0.0029,0.0029,0.0029,0,0,0.0075,0.0073,0.0068,0.0066,0.0062,0.006,0.006,0.0054,0.0055,0.0055,0.0053,0.0056,0.0048,0.0053,0.0052,0.0058,0.0073,0.0052,0.0076,0.0102,0.0107,0.0113,0.0152,0.016,0.0056,0.0056,0.0056,0,0.0075,0.007,0.0066,0.0063,0.0064,0.0062,0.0061,0.0062,0.0057,0.0064,0.0059,0.0063,0.0057,0.0069,0.0072,0.0062,0.0085,0.0071,0.0105,0.0111,0.0115,0.0154,0.0163,0.0057,0.0057,0.0057,0.0057,0,0.0069,0.0068,0.0066,0.0063,0.0064,0.0063,0.0066,0.0071,0.0074,0.0077,0.0088,0.0084,0.0091,0.0085,0.0081,0.011,0.0118,0.0102,0.0105,0.0123,0.0162,0.0171,0.0058,0.0058,0.0058,0.0057,0,0,0.0057,0.006,0.006,0.006,0.0066,0.0063,0.0077,0.0086,0.01,0.0102,0.0123,0.012,0.0126,0.0127,0.0123,0.0145,0.0197,0.0143,0.0144,0.0189,0.0272,0.0271,0.0281,0.0188,0.019,0.0191,0.0289,0,0.0051,0.0048,0.0054,0.0055,0.0054,0.0068,0.0079,0.0092,0.0107,0.0129,0.0139,0.0153,0.0139,0.0148,0.0169,0.0188,0.0221,0.0173,0.0242,0.0245,0.0247,0.0291,0.0195,0.0296,0.0298,0.03,0.0301,0,0.004,0.004,0.004,0.0052,0.0054,0.0058,0.0084,0.0095,0.0132,0.0148,0.0176,0.0188,0.0226,0.0206,0.0269,0.0242,0.0265,0.0279,0.0283,0.0284,0.0261,0.0272,0.0317,0.0316,0.0315,0.0314,0.0313,0,0.0026,0.0031,0.0031,0.0033,0.0047,0.0055,0.0066,0.0099,0.0124,0.0168,0.0203,0.0236,0.027,0.0299,0.0344,0.0309,0.0423,0.0373,0.0398,0.0398,0.0362,0.0355,0.0426,0.0426,0.0425,0.0425,0.0425,0,0.0014,0.0014,0.0022,0.0019,0.0028,0.0041,0.0063,0.0086,0.0136,0.0185,0.0212,0.0271,0.0297,0.0364,0.0379,0.0439,0.0457,0.0424,0.0428,0.0366,0.0359,0.0369,0.0361,0.0429,0.0428,0.0427,0.0427,0,-0.0002,0.0002,0.0002,0.0013,0.0019,0.0023,0.0064,0.0091,0.0137,0.021,0.0234,0.0317,0.0402,0.0442,0.0508,0.0496,0.054,0.0557,0.0525,0.0522,0.0486,0.0477,0.0577,0.0578,0.0579,0.0579,0.058,0,-0.0011,-0.0014,-0.0006,0.0002,0.0007,0.0022,0.0046,0.0087,0.0133,0.025,0.0297,0.0399,0.0453,0.0557,0.0582,0.0627,0.0611,0.063,0.0519,0.051,0.0504,0.0494,0.0485,0.0581,0.0581,0.0582,0.0582,0,-0.0024,-0.0021,-0.0017,0.0002,0.0018,0.0044,0.0084,0.0119,0.0195,0.0237,0.0359,0.0421,0.0522,0.0568,0.0623,0.0644,0.0608,0.0637,0.0633,0.0528,0.0516,0.0507,0.0497,0.0584,0.0584,0.0584,0.0584,0,-0.003,-0.0024,-0.0009,0.0012,0.0034,0.0078,0.0088,0.0159,0.0206,0.0324,0.0373,0.0477,0.0537,0.0583,0.0639,0.0659,0.0619,0.0574,0.0572,0.057,0.0519,0.0499,0.0588,0,0,0,0,0,-0.0031,-0.0007,0.001,0.0037,0.0062,0.0085,0.0133,0.0152,0.0223,0.0301,0.0333,0.0428,0.0514,0.0565,0.058,0.0624,0.0616,0.0638,0.0561,0.0599,0.0596,0.0535,0,0,0,0,0,0,-0.0026,-0.0008,0.0015,0.0064,0.0092,0.013,0.0163,0.0205,0.0245,0.0312,0.0358,0.0401,0.0483,0.0505,0.0575,0.0587,0.0529,0.0688,0.0687,0.06,0.0598,0.0595,0.0532,0,0,0,0,0]},{"header":{"parameterUnit":"m.s-1","parameterCategory":2,"la1":30.2991,"la2":30.254,"lo1":-89.0895,"lo2":-89.0444,"dy":0.0017,"dx":0.0017,"nx":28,"ny":28,"refTime":"2023-11-17T09:00:00:Z","depth":"4","parameterNumber":3,"parameterNumberName":"V-component_of_CURRENTS"},"data":[0,0,0,0,0,0,0,0,0,0,0,0,0,0,0,0,0,0,0,0,0,0,0,0,0,0,0,0,0,0,0,0,0,0,0,0,0,0,0,0,0,0,0,0,0,0,0,0,0,0,0,0,0,0,0,0,0,0,-0.0116,-0.0116,0,-0.0137,-0.0137,-0.0138,-0.0157,-0.0157,-0.0157,-0.0157,-0.0182,-0.0183,-0.0183,0,0,0,0,0,0,0,0,0,0,0,0,0,-0.0085,-0.0085,-0.0116,-0.0116,-0.0117,-0.0137,-0.0137,-0.0138,-0.0157,-0.0157,-0.0157,-0.0158,-0.0182,-0.0183,-0.0183,0,0,0,0,0,0,0,0,0,0,0,0,0,-0.0101,-0.0085,-0.0116,-0.0129,-0.013,-0.0137,-0.0137,-0.0138,-0.0157,-0.0157,-0.0157,-0.0158,-0.0182,-0.0183,-0.0183,-0.0181,0,0,-0.0185,-0.0186,0,0,0,0,0,0,0,0,-0.01,-0.0102,-0.0126,-0.0128,-0.0129,-0.0145,-0.0136,-0.0152,-0.0157,-0.0146,-0.0157,-0.0158,-0.017,-0.0172,-0.0175,-0.0182,-0.0183,-0.0186,-0.0186,-0.0186,-0.0186,0,0,0,0,0,0,0,-0.0099,-0.0102,-0.0124,-0.0127,-0.0128,-0.0131,-0.0133,-0.0139,-0.0156,-0.0147,-0.0149,-0.0151,-0.0171,-0.0174,-0.0175,-0.0183,-0.0186,-0.0186,-0.0187,-0.0187,-0.0183,-0.0183,0,0,0,0,0,0,-0.0097,-0.0101,-0.0124,-0.0125,-0.0115,-0.0131,-0.0134,-0.0139,-0.0156,-0.0159,-0.0151,-0.0152,-0.0173,-0.0175,-0.0176,-0.0156,-0.0186,-0.0187,-0.0187,-0.0184,-0.0183,-0.0183,0,0,0,0,0,0,-0.0096,-0.0099,-0.0123,-0.0113,-0.0116,-0.0131,-0.0137,-0.014,-0.0147,-0.0158,-0.0161,-0.0156,-0.0173,-0.0175,-0.0179,-0.0158,-0.0187,-0.0188,-0.0184,-0.0184,-0.0183,-0.0127,0,0,0,0,0,0,-0.0095,-0.0098,-0.0104,-0.0113,-0.0117,-0.0123,-0.0137,-0.014,-0.0148,-0.015,-0.0164,-0.0166,-0.0173,-0.0178,-0.018,-0.0159,-0.0188,-0.0185,-0.0184,-0.0183,-0.0129,-0.0124,-0.012,0,0,0,0,0,-0.0094,-0.0096,-0.0104,-0.0107,-0.0123,-0.0123,-0.0125,-0.0137,-0.0148,-0.0146,-0.0156,-0.0166,-0.0173,-0.0178,-0.018,-0.016,-0.0185,-0.0184,-0.0183,-0.0131,-0.0125,-0.012,0,0,0,0,0,0,-0.0089,-0.0099,-0.0107,-0.0114,-0.0117,-0.0126,-0.0128,-0.0137,-0.0145,-0.0149,-0.0162,-0.0165,-0.016,-0.0171,-0.0176,-0.0157,-0.018,-0.0179,-0.014,-0.0134,-0.013,-0.0115,-0.0189,0,0,0,0,0,-0.009,-0.0093,-0.0102,-0.0108,-0.0108,-0.0119,-0.0123,-0.0129,-0.0136,-0.0141,-0.015,-0.0158,-0.0156,-0.0155,-0.0161,-0.0151,-0.0161,-0.0139,-0.0135,-0.013,-0.0121,-0.0114,-0.0108,-0.0179,-0.0179,-0.0179,0,0,-0.009,-0.0096,-0.0099,-0.0106,-0.0111,-0.0098,-0.0122,-0.0125,-0.011,-0.0142,-0.013,-0.0146,-0.0152,-0.0139,-0.0137,-0.0145,-0.0118,-0.0129,-0.0125,-0.0118,-0.0112,-0.0105,-0.0099,-0.0178,-0.0178,-0.0178,0,0,-0.0079,-0.0096,-0.0089,-0.0086,-0.009,-0.0091,-0.0091,-0.0098,-0.0098,-0.0095,-0.0107,-0.0106,-0.0116,-0.0103,-0.01,-0.0074,-0.0097,-0.0084,-0.0041,-0.0035,-0.0028,-0.0023,-0.0036,-0.0032,-0.0076,-0.0076,-0.0076,0,-0.0079,-0.007,-0.0086,-0.0071,-0.0062,-0.0084,-0.0062,-0.0061,-0.0069,-0.0059,-0.0086,-0.0082,-0.0091,-0.0054,-0.0047,-0.0059,-0.0074,-0.006,-0.0027,-0.0022,-0.0017,-0.0032,-0.0028,-0.0073,-0.0073,-0.0074,-0.0074,0,-0.0054,-0.0045,-0.0039,-0.0024,-0.0016,-0.0005,-0.0001,0.0004,-0.0007,-0.0006,0.0008,-0.0008,-0.0006,-0.0005,-0.0019,0.0016,-0.0013,-0.0025,-0.0038,-0.0007,-0.0024,-0.0022,-0.0069,-0.007,-0.0071,-0.0071,0,0,-0.0058,-0.0026,-0.0025,-0.0005,0.0011,0.0019,0.0051,0.0075,0.0092,0.0081,0.0103,0.0109,0.0083,0.0085,0.0068,0.0078,0.0092,0.004,0.0039,0.0033,0.0087,0.005,0.0049,0.008,0.0081,0.0082,0.0059,0,-0.0032,0.0008,0.0021,0.0063,0.0085,0.0092,0.0123,0.0141,0.0141,0.0152,0.0148,0.0146,0.0123,0.0108,0.0123,0.0089,0.0103,0.0099,0.0053,0.0051,0.002,0.0053,0.0085,0.0061,0.0061,0.0062,0.0062,0,-0.0012,0.0014,0.0059,0.0111,0.0121,0.0141,0.0181,0.0204,0.0225,0.022,0.0226,0.0202,0.0211,0.0176,0.0167,0.0158,0.0133,0.0113,0.0111,0.0062,0.002,0.0023,0.0066,0.0066,0.0066,0.0065,0.0065,0,-0.0014,0.0042,0.0078,0.0094,0.0144,0.0165,0.0188,0.0217,0.023,0.0245,0.0234,0.0251,0.0218,0.0216,0.016,0.0159,0.0138,0.0131,0.0085,0.0081,0.0096,0.009,0.0144,0.0144,0.0144,0.0145,0.0145,0,0.0004,0.0032,0.0074,0.0089,0.0128,0.0163,0.0194,0.0217,0.0238,0.0249,0.0249,0.0243,0.0222,0.0198,0.0176,0.0127,0.0148,0.0101,0.0081,0.0117,0.0114,0.0097,0.0091,0.0144,0.0144,0.0144,0.0144,0,-0.0011,0.002,0.0056,0.0107,0.012,0.0137,0.0174,0.0195,0.0212,0.022,0.0214,0.0215,0.0187,0.0168,0.0142,0.012,0.0096,0.0077,0.0103,0.0083,0.0034,0.0032,0.0038,0.0037,0.0035,0.0035,0.0034,0,-0.0012,0.0002,0.0043,0.0055,0.0072,0.0101,0.0121,0.0162,0.0178,0.0201,0.0199,0.0177,0.0173,0.0118,0.01,0.0066,0.006,0.004,0.0064,0.0048,0.0028,0.0027,0.0027,0.0032,0.0032,0.0031,0.0031,0,-0.0023,-0.0021,0.0002,0.0021,0.0038,0.0073,0.0102,0.0114,0.0161,0.0168,0.0181,0.0166,0.0133,0.011,0.0068,0.005,0.0053,0.0029,0.0031,0.0054,0.004,0.0022,0.0022,0.0027,0.0028,0.0028,0.0028,0,-0.0048,-0.0043,-0.0026,-0.0008,0.0017,0.0051,0.0073,0.0106,0.0129,0.0165,0.0163,0.0154,0.0147,0.0099,0.007,0.0038,0.0039,0.0032,0.0035,0.0039,0.0045,0.0028,0.0005,0,0,0,0,0,-0.0067,-0.0062,-0.0048,-0.0021,0.0005,0.0025,0.007,0.0096,0.0134,0.0141,0.016,0.0141,0.0104,0.0091,0.0056,0.0044,0.0025,-0.0001,0.0016,0.0006,0.001,0.0014,0,0,0,0,0,0,-0.0079,-0.0073,-0.0058,-0.0033,-0.0015,0.0021,0.0055,0.0083,0.0099,0.0127,0.0113,0.0112,0.008,0.0119,0.0047,0.0037,0.004,-0.0015,-0.0017,0.0004,0.0008,0.0011,0.0016,0,0,0,0,0]}]]